Weather History for Plymouth, MA

Change the Weather History Date:

Monday, May 5, 2014

  Actual Average Record
Temperature  
Mean Temperature 55 °F -  
Max Temperature 66 °F 62 °F 85 °F (1949)
Min Temperature 46 °F 40 °F 29 °F (1974)
Degree Days  
Heating Degree Days 10    
Growing Degree Days 5 (Base 50)    
Moisture  
Dew Point 39 °F    
Average Humidity 55    
Maximum Humidity 77    
Minimum Humidity 39    
Precipitation  
Precipitation 0.00 in - - ()
Sea Level Pressure  
Sea Level Pressure 29.74 in    
Wind  
Wind Speed 11 mph (NW)    
Max Wind Speed 16 mph    
Max Gust Speed 24 mph    
Visibility 10 miles    
Events      
Averages and records for this station are not official NWS values.
T = Trace of Precipitation, MM = Missing Value Source: NWS Daily Summary

Daily Weather History Graph

Daily Weather History Graph

Search for Another Location

Airport:

Trip Planner

Search our weather history database for the weather conditions in past years. The results will help you decide how hot, cold, wet, or windy it might be!

Date:

Astronomy

May. 05, 2014 Rise Set
Actual Time 5:33 AM EDT 7:45 PM EDT
Civil Twilight 5:03 AM EDT 8:16 PM EDT
Nautical Twilight 4:25 AM EDT 8:54 PM EDT
Astronomical Twilight 3:43 AM EDT 9:36 PM EDT
Moon 10:51 AM EDT (5/5) 12:27 AM EDT (5/5)
Length of Visible Light 15h 13m
Length of Day
14h 11m
Waxing Crescent, 36% of the Moon is Illuminated
May 5
Waxing Crescent
May 6
First Quarter
May 14
Full
May 21
Last Quarter
May 28
New

Hourly Weather History & Observations

Time (EDT) Temp. Dew Point Humidity Pressure Visibility Wind Dir Wind Speed Gust Speed Precip Events Conditions
12:52 AM 50.0 °F 35.1 °F 57% 29.62 in 10.0 mi West 11.5 mph - N/A   Overcast
2:52 AM 50.0 °F 37.0 °F 61% 29.63 in 10.0 mi NW 15.0 mph 24.2 mph N/A   Overcast
3:52 AM 50.0 °F 37.0 °F 61% 29.64 in 10.0 mi NW 11.5 mph 23.0 mph N/A   Overcast
4:52 AM 50.0 °F 37.9 °F 63% 29.66 in 10.0 mi WNW 11.5 mph - N/A   Overcast
5:52 AM 50.0 °F 39.0 °F 66% 29.70 in 10.0 mi NW 9.2 mph - N/A   Overcast
6:52 AM 51.1 °F 39.0 °F 63% 29.73 in 10.0 mi NW 10.4 mph - N/A   Overcast
7:52 AM 54.0 °F 39.9 °F 59% 29.74 in 10.0 mi NW 10.4 mph - N/A   Scattered Clouds
8:52 AM 57.9 °F 41.0 °F 53% 29.74 in 10.0 mi NW 16.1 mph 21.9 mph N/A   Scattered Clouds
9:52 AM 57.9 °F 39.9 °F 51% 29.75 in 10.0 mi WNW 12.7 mph 21.9 mph N/A   Mostly Cloudy
10:52 AM 57.9 °F 39.0 °F 49% 29.76 in 10.0 mi NNW 15.0 mph - N/A   Overcast
11:52 AM 59.0 °F 39.9 °F 49% 29.75 in 10.0 mi NNW 8.1 mph - N/A   Overcast
12:52 PM 61.0 °F 39.0 °F 44% 29.76 in 10.0 mi NW 13.8 mph 21.9 mph N/A   Overcast
2:52 PM 64.9 °F 39.0 °F 39% 29.74 in 10.0 mi West 11.5 mph 23.0 mph 0.00 in   Scattered Clouds
3:52 PM 63.0 °F 37.9 °F 40% 29.75 in 10.0 mi WNW 16.1 mph 21.9 mph N/A   Overcast
4:52 PM 62.1 °F 37.0 °F 39% 29.75 in 10.0 mi NNW 10.4 mph - N/A   Overcast
5:52 PM 62.1 °F 37.0 °F 39% 29.75 in 10.0 mi WNW 9.2 mph - N/A   Mostly Cloudy
6:52 PM 59.0 °F 41.0 °F 51% 29.78 in 10.0 mi NNW 5.8 mph - 0.00 in   Overcast
7:52 PM 55.0 °F 44.1 °F 67% 29.80 in 10.0 mi ENE 4.6 mph - 0.00 in   Mostly Cloudy
8:52 PM 51.1 °F 39.9 °F 66% 29.82 in 10.0 mi NNE 3.5 mph - N/A   Clear
9:52 PM 46.9 °F 39.9 °F 77% 29.84 in 10.0 mi North 4.6 mph - N/A   Clear
10:52 PM 46.9 °F 37.9 °F 71% 29.85 in 10.0 mi Calm Calm - N/A   Clear